• MPC Preparation (Info)

  • MPEC 2014-T68 : 2014 TO35

    The following Minor Planet Electronic Circular may be linked-to from your own Web pages, but must not otherwise be redistributed electronically.

    A form allowing access to any MPEC is at the bottom of this page.


    Read MPEC 2014-T67 Read MPEC 2014-U01


    M.P.E.C. 2014-T68                                Issued 2014 Oct. 15, 18:42 UT
    
         The Minor Planet Electronic Circulars contain information on unusual
             minor planets and routine data on comets.  They are published
       on behalf of Commission 20 of the International Astronomical Union by the
              Minor Planet Center, Smithsonian Astrophysical Observatory,
                              Cambridge, MA 02138, U.S.A.
    
                 Prepared using the Tamkin Foundation Computer Network
    
                                  MPC@CFA.HARVARD.EDU
                URL https://www.minorplanetcenter.net/    ISSN 1523-6714
    
                                       2014 TO35
    
    Observations:
         K14T35O* C2014 10 13.43451 02 27 07.74 +19 36 29.0          18.3 VqET068703
         K14T35O  C2014 10 13.44361 02 27 15.98 +19 37 28.6          19.0 VqET068703
         K14T35O  C2014 10 13.45271 02 27 24.25 +19 38 27.8          19.5 VqET068703
         K14T35O  C2014 10 13.46190 02 27 32.60 +19 39 26.4          18.9 VqET068703
         K14T35O  C2014 10 13.50694 02 28 13.72 +19 44 12.8          18.6 VqET068703
         K14T35O  C2014 10 13.50982 02 28 16.37 +19 44 31.1          18.7 VqET068703
         K14T35O  C2014 10 13.51271 02 28 19.10 +19 44 49.3          19.1 VqET068703
         K14T35O  C2014 10 13.51560 02 28 21.78 +19 45 07.6          18.9 VqET068703
         K14T35O KC2014 10 13.82317 02 33 32.04 +20 17 41.1          19.3 VtET068L04
         K14T35O KC2014 10 13.82942 02 33 37.77 +20 18 22.9          19.1 VtET068L04
         K14T35O KC2014 10 13.84194 02 33 49.18 +20 19 45.0          19.1 VtET068L04
         K14T35O KC2014 10 13.94067 02 35 20.11 +20 30 23.7          19.3 VtET068K33
         K14T35O KC2014 10 13.94852 02 35 27.22 +20 31 13.7          19.5 VtET068K33
         K14T35O KC2014 10 13.95778 02 35 35.48 +20 32 13.7          19.1 VtET068K33
         K14T35O 9C2014 10 14.04288 02 36 54.85 +20 41 52.5          18.8 VqET068G40
         K14T35O  C2014 10 14.14525 02 38 37.52 +20 51 33.5          17.7 RqET068G48
         K14T35O  C2014 10 14.14600 02 38 38.24 +20 51 38.4          17.6 RqET068G48
         K14T35O  C2014 10 14.14669 02 38 38.86 +20 51 43.1          17.9 RqET068G48
         K14T35O KC2014 10 14.17724102 39 06.17 +20 55 06.3          19.1 RqET068V37
         K14T35O KC2014 10 14.17989502 39 08.53 +20 55 23.5          19.2 RqET068V37
         K14T35O 9C2014 10 14.18248 02 38 55.51 +20 56 02.9          18.7 VqET068G40
         K14T35O KC2014 10 14.18253902 39 10.90 +20 55 40.1          18.7 RqET068V37
         K14T35O KC2014 10 14.18530002 39 13.35 +20 55 57.7          18.8 RqET068V37
         K14T35O KC2014 10 14.18797602 39 15.72 +20 56 14.8          18.9 RqET068V37
         K14T35O KC2014 10 14.19062202 39 18.07 +20 56 31.6          18.7 RqET068V37
         K14T35O 9C2014 10 14.22397 02 39 31.74 +21 00 04.9          18.8 VqET068G40
         K14T35O KC2014 10 14.26024 02 40 20.09 +21 03 40.5          18.8 RoET068291
         K14T35O KC2014 10 14.26174 02 40 21.40 +21 03 49.9          18.9 RoET068291
         K14T35O KC2014 10 14.26324 02 40 22.72 +21 03 59.3          19.0 RoET068291
         K14T35O KC2014 10 14.35044 02 41 36.69 +21 12 48.8          18.9 RqET068448
         K14T35O KC2014 10 14.36370 02 41 48.00 +21 14 07.2          19.1 RqET068448
         K14T35O KC2014 10 14.37827 02 42 00.42 +21 15 33.2          18.8 RqET068448
         K14T35O  C2014 10 15.33075 02 56 17.83 +22 43 54.8          19.6 VqET068703
         K14T35O  C2014 10 15.33577 02 56 21.89 +22 44 20.3          19.1 VqET068703
         K14T35O  C2014 10 15.34077 02 56 25.85 +22 44 47.3          19.4 VqET068703
         K14T35O  C2014 10 15.34578 02 56 29.94 +22 45 13.8          18.9 VqET068703
         K14T35O KC2014 10 15.37730 02 56 52.77 +22 47 35.4          18.9 RqET068H36
         K14T35O KC2014 10 15.38163 02 56 56.27 +22 47 57.1          18.7 RqET068H36
         K14T35O KC2014 10 15.39026 02 57 03.26 +22 48 40.8          19.0 RqET068H36
         K14T35O KC2014 10 15.39461 02 57 06.79 +22 49 02.9          19.3 RqET068H36
         K14T35O KC2014 10 15.39897 02 57 10.33 +22 49 25.0          19.7 RqET068H36
         K14T35O  C2014 10 15.45499 02 57 57.57 +22 54 27.7                qET068703
         K14T35O  C2014 10 15.45642 02 57 58.77 +22 54 34.9          19.8 VqET068703
         K14T35O  C2014 10 15.45786 02 58 00.06 +22 54 41.3          18.7 VqET068703
         K14T35O  C2014 10 15.45929 02 58 01.08 +22 54 49.6          20.0 VqET068703
    
    Observer details:
    291 LPL/Spacewatch II.  Observer A. F. Tubbiolo.  1.8-m f/2.7 reflector + CCD.
    448 Desert Moon Observatory.  Observer B. L. Stevens.  0.3-m
        Schmidt-Cassegrain + CCD.
    703 Catalina Sky Survey.  Observers J. A. Johnson, R. E. Hill.  Measurers
        E. J. Christensen, A. R. Gibbs, A. D. Grauer, R. E. Hill, J. A. Johnson,
        R. A. Kowalski, S. M. Larson, F. C. Shelly.  0.68-m Schmidt + CCD.
    G40 Slooh.com Canary Islands Observatory.  Observer B. Lutkenhoner.  0.5-m
        f/6.8 reflector + CCD.
    G48 Doc Greiner Research Obs., Rancho Hildalgo.  Observer M. Mills.  0.4-m
        f/10 Schmidt-Cassegrain + CCD.
    H36 Sandlot Observatory, Scranton.  Observer G. Hug.  0.56-m reflector + CCD.
    K33 San Defendente.  Observer E. Viano.  0.28-m f/10 Schmidt-Cassegrain + CCD
        + f/3.3 focal reducer.
    L04 ROASTERR-1 Observatory, Cluj-Napoca.  Observer L. Hudin.  0.3-m f/5.0
        reflector + CCD.
    V37 McDonald Observatory-LCOGT ELP.  Observers E. J. Christensen, S. M. Larson,
        T. Lister.  Measurer T. Lister.  1.0-m f/8 Ritchey-Chretien + CCD.
    
    Orbital elements:
    2014 TO35                                                Earth MOID = 0.0439 AU
    Epoch 2014 Dec. 9.0 TT = JDT 2457000.5                  MPC
    M  16.38715              (2000.0)            P               Q
    n   0.28377504     Peri.    6.59849     +0.94338210     -0.33165325
    a   2.2934358      Node    12.77562     +0.30307678     +0.85442761
    e   0.5458380      Incl.    1.56180     +0.13481347     +0.39994947
    P   3.47           H   24.5           G   0.15           U   7
    Residuals in seconds of arc
    141013 703  0.2+  0.5-    141014 G48  0.7-  0.1-    141014 448  0.2+  0.1-
    141013 703  0.3+  0.2+    141014 G48  0.1-  0.0     141014 448  0.2+  0.3+
    141013 703  0.7+  0.7+    141014 G48  0.3-  0.2+    141015 703  0.1-  0.5+
    141013 703  0.7+  0.3+    141014 V37  0.1+  0.1-    141015 703  0.2+  0.4-
    141013 703  0.8-  0.1-    141014 V37  0.1+  0.1+    141015 703  0.6-  0.2+
    141013 703  0.9-  0.0     141014 G40  0.0   0.0     141015 703  0.2+  0.4+
    141013 703  0.1-  0.1-    141014 V37  0.3+  0.1-    141015 H36  0.2+  0.1+
    141013 703  0.1+  0.0     141014 V37  0.2+  0.1-    141015 H36  0.1+  0.1-
    141013 L04  0.3-  1.0-    141014 V37  0.1+  0.0     141015 H36  0.0   0.1+
    141013 L04  0.0   0.3-    141014 V37  0.2+  0.0     141015 H36  0.0   0.3+
    141013 L04  0.0   0.4-    141014 G40  0.1-  0.0     141015 H36  0.0   0.5+
    141013 K33  1.2-  0.2-    141014 291  0.2-  0.3+    141015 703  0.8-  0.6-
    141013 K33  0.6+  0.4-    141014 291  0.1-  0.3+    141015 703  0.2-  0.4-
    141013 K33  1.2+  0.5+    141014 291  0.2+  0.4+    141015 703  1.5+  1.1-
    141014 G40  0.9-  0.6-    141014 448  0.2+  0.0     141015 703  0.4-  0.1+
    
    Ephemeris:
    2014 TO35                a,e,i = 2.29, 0.55, 2                   q = 1.0416
    Date    TT    R. A. (2000) Decl.     Delta      r     Elong.  Phase     V
    2014 09 15    21 36 39.5 -21 16 51   0.1040  1.0945   147.0    30.0    21.1
    ...
    2014 09 30    23 02 25.2 -10 18 47   0.05554 1.0526   155.9    22.9    19.4
    ...
    2014 10 08    00 54 27.8 +07 01 35   0.04360 1.0429   178.6     1.3    18.0
    ...
    2014 10 14    02 36 10.4 +20 37 49   0.04792 1.0418   156.7    22.3    19.1
    2014 10 15    02 51 24.1 +22 14 58   0.04968 1.0421   153.8    25.0    19.2
    2014 10 16    03 05 45.2 +23 39 43   0.05167 1.0426   151.2    27.5    19.4
    ...
    2014 10 22    04 12 25.1 +28 44 42   0.06714 1.0486   141.3    36.4    20.2
    ...
    2014 10 30    05 00 25.7 +30 52 04   0.09296 1.0646   138.5    38.2    21.0
    ...
    2014 11 14    05 30 29.6 +31 15 03   0.1487  1.1169   146.8    29.0    21.9
    
    A. U. Tomatic                (C) Copyright 2014 MPC           M.P.E.C. 2014-T68
    

    Read MPEC 2014-T67 Read MPEC 2014-U01


    MPEC number:

    Enter an MPEC number in one of the following forms:

    • 1997-B01 (the full form)
    • J97B01 (the packed version of the full form)
    • B01 (the abbreviated form)